This is the latest recevied weather packets stored in our database for station/object IN3XSV-13. If no packets are shown the sender has not sent any weather packets the latest 10 day(s).
| Time | Temp. | Humidity | Pressure | Rain* | Wind** | Luminosity | Snow |
|---|---|---|---|---|---|---|---|
| 1787503975 | 25.56° C | 53% | 1012.1 hPa | 0 mm | - | - | - |
| 1787503675 | 25.56° C | 53% | 1012.2 hPa | 0 mm | - | - | - |
| 1787503375 | 25.56° C | 53% | 1012.3 hPa | 0 mm | - | - | - |
| 1787503075 | 25° C | 53% | 1012.2 hPa | 0 mm | - | - | - |
| 1787502775 | 25° C | 53% | 1012.3 hPa | 0 mm | - | - | - |
| 1787502475 | 25° C | 53% | 1012.3 hPa | 0 mm | - | - | - |
| 1787502175 | 25° C | 53% | 1012.3 hPa | 0 mm | - | - | - |
| 1787501875 | 25° C | 53% | 1012.3 hPa | 0 mm | - | - | - |
| 1787501575 | 25.56° C | 52% | 1012.3 hPa | 0 mm | - | - | - |
| 1787501275 | 25.56° C | 52% | 1012.4 hPa | 0 mm | - | - | - |
| 1787500975 | 25.56° C | 52% | 1012.3 hPa | 0 mm | - | - | - |
| 1787500675 | 25.56° C | 52% | 1012.3 hPa | 0 mm | - | - | - |
| 1787500375 | 25.56° C | 52% | 1012.3 hPa | 0 mm | - | - | - |
| 1787500075 | 25.56° C | 51% | 1012.3 hPa | 0 mm | - | - | - |
| 1787499775 | 25.56° C | 51% | 1012.3 hPa | 0 mm | - | - | - |
| 1787499476 | 26.11° C | 51% | 1012.3 hPa | 0 mm | - | - | - |
| 1787499176 | 26.11° C | 51% | 1012.4 hPa | 0 mm | - | - | - |
| 1787498876 | 26.11° C | 50% | 1012.4 hPa | 0 mm | - | - | - |
| 1787498576 | 26.11° C | 50% | 1012.3 hPa | 0 mm | - | - | - |
| 1787498276 | 26.67° C | 50% | 1012.2 hPa | 0 mm | - | - | - |
| 1787497976 | 26.67° C | 49% | 1012.2 hPa | 0 mm | - | - | - |
| 1787497675 | 26.67° C | 50% | 1012.3 hPa | 0 mm | - | - | - |
| 1787497376 | 27.22° C | 49% | 1012.3 hPa | 0 mm | - | - | - |
| 1787497076 | 27.22° C | 49% | 1012.3 hPa | 0 mm | - | - | - |
| 1787496776 | 27.78° C | 48% | 1012.1 hPa | 0 mm | - | - | - |
* Rain latest hour (hover to see other rain measurements)
** Current wind speed in m/s (hover to see current wind gust speed)